Location: Tierz
(42.1336°N, 0.3549°W)
Time: 15:42:18
(UTC+00:00)

USA 306 - Pass Details

Date: 29 October 2020
Orbit: 569 x 577 km, 54.0° (Epoch: 22 November)

Event Time Altitude Azimuth Distance (km) Brightness Sun altitude
Rises 17:55:40 0° 311° (NW) 2,786 7.0 -11.1°
Reaches altitude 10° 17:58:05 10° 320° (NW) 1,884 6.0 -11.6°
Maximum altitude 18:02:02 35° 28° (NNE) 929 3.7 -12.3°
Enters shadow 18:04:26 20° 82° (E) 1,357 4.2 -12.7°
